Home   Weather   Douala   Past weeks

Flag for Cameroon Past Weather in Douala, Cameroon — Yesterday and Last 2 Weeks

Now
77 °F

Thunderstorms. Partly sunny.


Feels Like: 78 °F
Forecast: 75 / 86 °F
Wind: 2 mph from North

Location: Douala Obs.

Current Time: May 23, 2017 at 10:05:40 am

Latest Report: May 23, 2017 at 9:00 am


Visibility: N/A

Pressure: 29.92 "Hg

Humidity: 94%

Dew Point: 75 °F

Location of DoualaLocation

Past Weather in Douala — Graph

°F

Douala Temperature Yesterday

Maximum temperature yesterday: 93 °F (at 2:00 pm)
Minimum temperature yesterday: 75 °F (at 2:00 am)
Average temperature yesterday: 83 °F

High & Low Weather Summary for the Past Weeks

 TemperatureHumidityPressure
High93 °F (May 18, 2:00 pm)100% (May 9, 5:00 am)29.98 "Hg (May 9, 5:00 am)
Low73 °F (May 9, 5:00 am)52% (May 14, 2:00 pm)29.71 "Hg (May 8, 4:00 pm)
Average81 °F85%29.84 "Hg
* Reported May 8 9:00 am — May 23 9:00 am, Douala. Weather by CustomWeather, © 2017

Note: Actual official high and low records may vary slightly from our data, if they occured in-between our weather recording intervals... More about our weather records

Advertising

Douala Weather History for the Previous 24 Hours

Scroll right to see more
 ConditionsComfort  
Time TempWeatherWind HumidityBarometerVisibility
9:00 am
Tue, May 23
77 °FThunderstorms. Partly sunny.2 mph94%29.92 "HgN/A
8:00 am75 °FThunderstorms. Partly sunny.3 mph94%29.89 "HgN/A
7:00 am75 °FThunderstorms. Broken clouds.No wind94%29.86 "HgN/A
6:00 am73 °FThunderstorms. Partly cloudy.2 mph100%29.83 "HgN/A
5:00 am79 °FThunderstorms. Partly cloudy.5 mph94%29.83 "HgN/A
4:00 am79 °FThunderstorms. Partly cloudy.5 mph94%29.80 "HgN/A
3:00 am81 °FThunderstorms. Partly cloudy.2 mph94%29.80 "HgN/A
2:00 am81 °FPassing clouds.5 mph94%29.80 "HgN/A
1:00 am81 °FPassing clouds.2 mph94%29.83 "HgN/A
12:00 am81 °FPassing clouds.2 mph94%29.83 "HgN/A
11:00 pm
Mon, May 22
82 °FPassing clouds.2 mph89%29.86 "HgN/A
10:00 pm82 °FPassing clouds.2 mph89%29.83 "HgN/A
9:00 pm81 °FPassing clouds.2 mph94%29.83 "HgN/A
8:00 pm84 °FThunderstorms. Passing clouds.2 mph84%29.80 "HgN/A
7:00 pm84 °FThunderstorms. Passing clouds.2 mph84%29.77 "HgN/A
6:00 pm86 °FThunderstorms. Scattered clouds.5 mph79%29.74 "HgN/A
5:00 pm90 °FThunderstorms. Partly sunny.5 mph67%29.74 "HgN/A
4:00 pm90 °FThunderstorms. Partly sunny.5 mph63%29.74 "HgN/A
3:00 pm91 °FScattered clouds.6 mph59%29.77 "HgN/A
2:00 pm93 °FPartly sunny.5 mph56%29.77 "HgN/A
1:00 pm91 °FPartly sunny.5 mph63%29.80 "HgN/A
12:00 pm91 °FPartly sunny.3 mph63%29.83 "HgN/A
11:00 am90 °FPartly sunny.3 mph63%29.86 "HgN/A
10:00 am90 °FScattered clouds.2 mph63%29.86 "Hg6 mi
Weather by CustomWeather, © 2017

See weather overviewHow to use our weather pages